RYR5224 EGGP-EINN

Flight info

Callsign RYR5224
Flight time 0h 48m
Altitude 34000
Route WAL L10 PENIL M144 BAGSO DCT DIGAN DIGAN2E
Aircraft B38M/M-SDE1FGHILORVWXY/HB1

Departure

Time 2026-05-05 19:51
Airport Liverpool John Lennon Airport (EGGP)

Arrival

Time 2026-05-05 20:40
Airport Shannon Airport (EINN)
Time Latitude Longitude Altitude Speed Heading
2026-05-05 19:00 53.33649 -2.85794 91 ft 0 kts 354°
2026-05-05 19:42 53.33647 -2.85794 91 ft 1 kts 354°
2026-05-05 19:42 53.33631 -2.85792 94 ft 3 kts 357°
2026-05-05 19:43 53.33613 -2.85791 91 ft 3 kts 15°
2026-05-05 19:43 53.33601 -2.85805 95 ft 3 kts 65°
2026-05-05 19:43 53.33597 -2.85828 91 ft 1 kts 85°
2026-05-05 19:43 53.33596 -2.85851 94 ft 2 kts 85°
2026-05-05 19:44 53.33596 -2.85858 93 ft 0 kts 85°
2026-05-05 19:46 53.33597 -2.85841 91 ft 4 kts 85°
2026-05-05 19:46 53.33601 -2.85743 91 ft 12 kts 85°
2026-05-05 19:47 53.33608 -2.85582 92 ft 15 kts 89°
2026-05-05 19:47 53.33552 -2.85509 94 ft 11 kts 175°
2026-05-05 19:47 53.33508 -2.85451 91 ft 8 kts 98°
2026-05-05 19:47 53.33514 -2.85312 91 ft 17 kts 85°
2026-05-05 19:48 53.33527 -2.85046 94 ft 28 kts 85°
2026-05-05 19:48 53.33543 -2.84699 92 ft 31 kts 86°
2026-05-05 19:48 53.33560 -2.84343 92 ft 30 kts 85°
2026-05-05 19:48 53.33578 -2.83981 92 ft 32 kts 86°
2026-05-05 19:49 53.33589 -2.83717 92 ft 21 kts 86°
2026-05-05 19:49 53.33595 -2.83564 94 ft 20 kts 85°
2026-05-05 19:49 53.33559 -2.83310 92 ft 12 kts 150°
2026-05-05 19:49 53.33537 -2.83302 92 ft 1 kts 173°
2026-05-05 19:50 53.33517 -2.83299 92 ft 5 kts 173°
2026-05-05 19:50 53.33474 -2.83290 93 ft 8 kts 173°
2026-05-05 19:50 53.33439 -2.83306 93 ft 3 kts 253°
2026-05-05 19:50 53.33439 -2.83336 92 ft 3 kts 265°
2026-05-05 19:51 53.33436 -2.83390 96 ft 6 kts 265°
2026-05-05 19:51 53.33425 -2.83652 95 ft 59 kts 266°
2026-05-05 19:51 53.33368 -2.84833 96 ft 141 kts 265°
2026-05-05 19:51 53.33302 -2.86637 702 ft 159 kts 270°
2026-05-05 19:52 53.33225 -2.88554 1638 ft 170 kts 267°
2026-05-05 19:52 53.33097 -2.90586 2424 ft 186 kts 270°
2026-05-05 19:52 53.33341 -2.92810 2961 ft 204 kts 296°
2026-05-05 19:52 53.34127 -2.94936 3513 ft 228 kts 309°
2026-05-05 19:53 53.35008 -2.97311 4221 ft 252 kts 295°
2026-05-05 19:53 53.35702 -3.00114 5056 ft 268 kts 296°
2026-05-05 19:53 53.36674 -3.02783 6165 ft 270 kts 305°
2026-05-05 19:53 53.37728 -3.05395 7175 ft 276 kts 304°
2026-05-05 19:54 53.38788 -3.08050 8407 ft 272 kts 304°
2026-05-05 19:54 53.39836 -3.10689 9581 ft 273 kts 304°
2026-05-05 19:54 53.40897 -3.13372 10512 ft 281 kts 304°
2026-05-05 19:54 53.42013 -3.16197 11065 ft 300 kts 303°
2026-05-05 19:55 53.43191 -3.19187 11715 ft 314 kts 303°
2026-05-05 19:55 53.44413 -3.22290 12456 ft 323 kts 303°
2026-05-05 19:55 53.45662 -3.25469 13416 ft 327 kts 303°
2026-05-05 19:55 53.46923 -3.28681 14277 ft 331 kts 303°
2026-05-05 19:56 53.48181 -3.31888 15105 ft 335 kts 303°
2026-05-05 19:56 53.49469 -3.35178 15942 ft 339 kts 302°
2026-05-05 19:56 53.50773 -3.38511 16774 ft 343 kts 302°
2026-05-05 19:56 53.52088 -3.41878 17584 ft 347 kts 302°
2026-05-05 19:57 53.53420 -3.45292 18370 ft 351 kts 302°
2026-05-05 19:57 53.54329 -3.47626 18826 ft 354 kts 302°
2026-05-05 19:57 53.56142 -3.52285 19743 ft 358 kts 302°
2026-05-05 19:57 53.57494 -3.55763 20405 ft 361 kts 302°
2026-05-05 19:58 53.58874 -3.59321 21083 ft 365 kts 302°
2026-05-05 19:58 53.60265 -3.62913 21732 ft 368 kts 301°
2026-05-05 19:58 53.61340 -3.66812 22369 ft 369 kts 284°
2026-05-05 19:58 53.61693 -3.71100 23006 ft 372 kts 275°
2026-05-05 19:59 53.61926 -3.75462 23592 ft 376 kts 275°
2026-05-05 19:59 53.62139 -3.79879 24120 ft 379 kts 274°
2026-05-05 19:59 53.62338 -3.84326 24632 ft 382 kts 274°
2026-05-05 19:59 53.62527 -3.88818 25142 ft 385 kts 274°
2026-05-05 20:00 53.62712 -3.93327 25640 ft 388 kts 274°
2026-05-05 20:00 53.62895 -3.97883 26130 ft 391 kts 274°
2026-05-05 20:00 53.63016 -4.00929 26465 ft 393 kts 274°
2026-05-05 20:00 53.63198 -4.05529 26943 ft 395 kts 274°
2026-05-05 20:01 53.63379 -4.10168 27405 ft 399 kts 274°
2026-05-05 20:01 53.63560 -4.14845 27866 ft 402 kts 274°
2026-05-05 20:01 53.63741 -4.19558 28315 ft 404 kts 273°
2026-05-05 20:01 53.63920 -4.24305 28761 ft 407 kts 273°
2026-05-05 20:02 53.64100 -4.29094 29203 ft 410 kts 273°
2026-05-05 20:02 53.64279 -4.33912 29635 ft 413 kts 273°
2026-05-05 20:02 53.64457 -4.38764 30046 ft 416 kts 273°
2026-05-05 20:02 53.64634 -4.43639 30398 ft 418 kts 273°
2026-05-05 20:03 53.64810 -4.48549 30745 ft 421 kts 273°
2026-05-05 20:03 53.64985 -4.53490 31087 ft 423 kts 273°
2026-05-05 20:03 53.65159 -4.58455 31421 ft 426 kts 273°
2026-05-05 20:03 53.65333 -4.63468 31758 ft 428 kts 273°
2026-05-05 20:04 53.65502 -4.68418 32083 ft 431 kts 273°
2026-05-05 20:04 53.65673 -4.73464 32488 ft 431 kts 273°
2026-05-05 20:04 53.65841 -4.78496 32942 ft 430 kts 273°
2026-05-05 20:04 53.66008 -4.83545 33313 ft 431 kts 273°
2026-05-05 20:05 53.66174 -4.88592 33582 ft 434 kts 273°
2026-05-05 20:05 53.66340 -4.93688 33847 ft 437 kts 273°
2026-05-05 20:05 53.66505 -4.98845 34048 ft 440 kts 273°
2026-05-05 20:06 53.66828 -5.09138 34049 ft 438 kts 273°
2026-05-05 20:06 53.67136 -5.19368 34052 ft 439 kts 272°
2026-05-05 20:07 53.67435 -5.29656 34053 ft 439 kts 272°
2026-05-05 20:07 53.67724 -5.39927 34057 ft 438 kts 272°
2026-05-05 20:08 53.67638 -5.50175 34050 ft 437 kts 257°
2026-05-05 20:08 53.65428 -5.59687 34056 ft 439 kts 248°
2026-05-05 20:09 53.63005 -5.69136 34055 ft 439 kts 247°
2026-05-05 20:09 53.60541 -5.78549 34054 ft 439 kts 247°
2026-05-05 20:10 53.58073 -5.87919 34060 ft 439 kts 247°
2026-05-05 20:10 53.55587 -5.97318 34064 ft 439 kts 247°
2026-05-05 20:11 53.53094 -6.06703 34067 ft 439 kts 247°
2026-05-05 20:11 53.50600 -6.16056 34077 ft 438 kts 247°
2026-05-05 20:12 53.48099 -6.25395 34075 ft 438 kts 246°
2026-05-05 20:12 53.45592 -6.34719 34071 ft 438 kts 246°
2026-05-05 20:13 53.43079 -6.44026 34069 ft 438 kts 246°
2026-05-05 20:13 53.40552 -6.53350 34077 ft 438 kts 246°
2026-05-05 20:14 53.38038 -6.62584 34074 ft 429 kts 246°
2026-05-05 20:14 53.35585 -6.71560 33938 ft 421 kts 246°
2026-05-05 20:14 53.34372 -6.75991 33344 ft 417 kts 246°
2026-05-05 20:15 53.33161 -6.80397 32740 ft 414 kts 246°
2026-05-05 20:15 53.31965 -6.84746 32197 ft 411 kts 247°
2026-05-05 20:15 53.30773 -6.89071 31682 ft 407 kts 247°
2026-05-05 20:15 53.29589 -6.93358 31147 ft 404 kts 247°
2026-05-05 20:16 53.28418 -6.97592 30627 ft 401 kts 247°
2026-05-05 20:16 53.27249 -7.01810 30095 ft 399 kts 247°
2026-05-05 20:16 53.26083 -7.06010 29495 ft 396 kts 247°
2026-05-05 20:16 53.24923 -7.10176 28964 ft 392 kts 247°
2026-05-05 20:17 53.23793 -7.14234 28469 ft 388 kts 247°
2026-05-05 20:17 53.22657 -7.18303 27984 ft 385 kts 247°
2026-05-05 20:17 53.21530 -7.22333 27499 ft 381 kts 247°
2026-05-05 20:17 53.20411 -7.26327 27014 ft 378 kts 247°
2026-05-05 20:18 53.19300 -7.30287 26549 ft 375 kts 247°
2026-05-05 20:18 53.18197 -7.34212 26080 ft 373 kts 246°
2026-05-05 20:18 53.17097 -7.38118 25613 ft 370 kts 246°
2026-05-05 20:18 53.16005 -7.41992 25175 ft 368 kts 246°
2026-05-05 20:19 53.14919 -7.45836 24737 ft 365 kts 246°
2026-05-05 20:19 53.13838 -7.49655 24306 ft 363 kts 246°
2026-05-05 20:19 53.12763 -7.53450 23882 ft 361 kts 246°
2026-05-05 20:19 53.11692 -7.57223 23413 ft 360 kts 246°
2026-05-05 20:20 53.10623 -7.60983 22945 ft 357 kts 246°
2026-05-05 20:20 53.09564 -7.64704 22520 ft 354 kts 246°
2026-05-05 20:20 53.08543 -7.68355 22123 ft 350 kts 250°
2026-05-05 20:20 53.07916 -7.72197 21929 ft 339 kts 257°
2026-05-05 20:21 53.07311 -7.75945 21722 ft 335 kts 255°
2026-05-05 20:21 53.06669 -7.79742 21332 ft 344 kts 255°
2026-05-05 20:21 53.06003 -7.83592 20946 ft 349 kts 255°
2026-05-05 20:21 53.05323 -7.87465 20559 ft 349 kts 255°
2026-05-05 20:22 53.04639 -7.91332 20171 ft 348 kts 255°
2026-05-05 20:22 53.03954 -7.95181 19778 ft 347 kts 255°
2026-05-05 20:22 53.03271 -7.99014 19388 ft 345 kts 254°
2026-05-05 20:22 53.02589 -8.02829 18999 ft 344 kts 254°
2026-05-05 20:23 53.01908 -8.06628 18617 ft 341 kts 254°
2026-05-05 20:23 53.01232 -8.10391 18210 ft 339 kts 254°
2026-05-05 20:23 53.00560 -8.14127 17791 ft 337 kts 254°
2026-05-05 20:23 52.99892 -8.17832 17398 ft 333 kts 254°
2026-05-05 20:24 52.99229 -8.21499 17022 ft 330 kts 254°
2026-05-05 20:24 52.98572 -8.25128 16661 ft 327 kts 254°
2026-05-05 20:24 52.97919 -8.28729 16295 ft 324 kts 254°
2026-05-05 20:24 52.97273 -8.32281 15938 ft 321 kts 254°
2026-05-05 20:25 52.96631 -8.35808 15582 ft 318 kts 254°
2026-05-05 20:25 52.95991 -8.39315 15228 ft 316 kts 254°
2026-05-05 20:25 52.95351 -8.42816 14872 ft 319 kts 254°
2026-05-05 20:25 52.94702 -8.46363 14504 ft 323 kts 254°
2026-05-05 20:26 52.94055 -8.49886 14157 ft 324 kts 254°
2026-05-05 20:26 52.93397 -8.53463 13781 ft 322 kts 254°
2026-05-05 20:26 52.92745 -8.57000 13389 ft 319 kts 254°
2026-05-05 20:26 52.92096 -8.60517 13011 ft 317 kts 254°
2026-05-05 20:27 52.91454 -8.63989 12654 ft 313 kts 254°
2026-05-05 20:27 52.90818 -8.67421 12302 ft 310 kts 254°
2026-05-05 20:27 52.90187 -8.70821 11955 ft 307 kts 254°
2026-05-05 20:27 52.89561 -8.74188 11610 ft 305 kts 254°
2026-05-05 20:28 52.88938 -8.77534 11218 ft 304 kts 254°
2026-05-05 20:28 52.88312 -8.80890 10830 ft 303 kts 254°
2026-05-05 20:28 52.87699 -8.84165 10583 ft 298 kts 254°
2026-05-05 20:28 52.87074 -8.87371 10429 ft 289 kts 249°
2026-05-05 20:29 52.86000 -8.90137 10263 ft 283 kts 233°
2026-05-05 20:29 52.84816 -8.92685 10133 ft 274 kts 234°
2026-05-05 20:29 52.83669 -8.95155 9943 ft 268 kts 234°
2026-05-05 20:29 52.82534 -8.97586 9640 ft 266 kts 234°
2026-05-05 20:30 52.81402 -8.99998 9340 ft 265 kts 234°
2026-05-05 20:30 52.80276 -9.02396 9036 ft 262 kts 233°
2026-05-05 20:30 52.79160 -9.04766 8740 ft 260 kts 233°
2026-05-05 20:30 52.78056 -9.07107 8470 ft 258 kts 233°
2026-05-05 20:31 52.76955 -9.09440 8191 ft 256 kts 233°
2026-05-05 20:31 52.75856 -9.11769 7910 ft 260 kts 233°
2026-05-05 20:31 52.74746 -9.14117 7625 ft 259 kts 233°
2026-05-05 20:31 52.73641 -9.16451 7351 ft 257 kts 233°
2026-05-05 20:32 52.72546 -9.18762 7075 ft 255 kts 233°
2026-05-05 20:32 52.71458 -9.21058 6804 ft 253 kts 233°
2026-05-05 20:32 52.70376 -9.23338 6536 ft 251 kts 232°
2026-05-05 20:32 52.69300 -9.25604 6249 ft 249 kts 232°
2026-05-05 20:33 52.68262 -9.27788 6113 ft 242 kts 233°
2026-05-05 20:33 52.67222 -9.29964 6025 ft 236 kts 230°
2026-05-05 20:33 52.65941 -9.31565 5767 ft 238 kts 201°
2026-05-05 20:33 52.64317 -9.31879 5496 ft 237 kts 171°
2026-05-05 20:34 52.62807 -9.30889 5273 ft 236 kts 146°
2026-05-05 20:34 52.61471 -9.29270 5053 ft 239 kts 143°
2026-05-05 20:34 52.60140 -9.27609 4804 ft 240 kts 142°
2026-05-05 20:34 52.58822 -9.25947 4553 ft 237 kts 140°
2026-05-05 20:35 52.57773 -9.23898 4246 ft 234 kts 113°
2026-05-05 20:35 52.57454 -9.21342 3998 ft 227 kts 84°
2026-05-05 20:35 52.57866 -9.18892 3717 ft 222 kts 61°
2026-05-05 20:35 52.58708 -9.16804 3483 ft 217 kts 51°
2026-05-05 20:36 52.59621 -9.14882 3262 ft 208 kts 51°
2026-05-05 20:36 52.60501 -9.13031 2983 ft 202 kts 51°
2026-05-05 20:36 52.61354 -9.11231 2705 ft 197 kts 50°
2026-05-05 20:36 52.62189 -9.09466 2433 ft 192 kts 51°
2026-05-05 20:37 52.62988 -9.07775 2181 ft 182 kts 50°
2026-05-05 20:37 52.63493 -9.06708 2013 ft 175 kts 50°
2026-05-05 20:37 52.64454 -9.04675 1725 ft 156 kts 50°
2026-05-05 20:37 52.65069 -9.03371 1528 ft 138 kts 49°
2026-05-05 20:38 52.65656 -9.02124 1298 ft 137 kts 51°
2026-05-05 20:38 52.66230 -9.00855 1113 ft 139 kts 50°
2026-05-05 20:38 52.66830 -8.99596 942 ft 140 kts 48°
2026-05-05 20:38 52.67448 -8.98325 739 ft 144 kts 49°
2026-05-05 20:39 52.68066 -8.97000 540 ft 148 kts 51°
2026-05-05 20:39 52.68684 -8.95686 310 ft 143 kts 50°
2026-05-05 20:39 52.69289 -8.94413 114 ft 140 kts 50°
2026-05-05 20:39 52.69861 -8.93209 42 ft 116 kts 51°
2026-05-05 20:40 52.70215 -8.92454 34 ft 66 kts 52°
2026-05-05 20:40 52.70499 -8.91857 31 ft 66 kts 52°
2026-05-05 20:40 52.70732 -8.91355 28 ft 36 kts 52°
2026-05-05 20:40 52.70744 -8.91168 27 ft 12 kts 161°
2026-05-05 20:41 52.70645 -8.91136 26 ft 17 kts 168°
2026-05-05 20:41 52.70506 -8.91090 25 ft 24 kts 169°
2026-05-05 20:41 52.70329 -8.91038 25 ft 24 kts 170°
2026-05-05 20:41 52.70162 -8.91028 28 ft 25 kts 199°
2026-05-05 20:42 52.69986 -8.91125 26 ft 28 kts 198°
2026-05-05 20:42 52.69800 -8.91228 26 ft 28 kts 198°
2026-05-05 20:42 52.69624 -8.91326 27 ft 24 kts 199°
2026-05-05 20:42 52.69459 -8.91419 26 ft 26 kts 199°
2026-05-05 20:43 52.69326 -8.91489 25 ft 14 kts 198°
2026-05-05 20:43 52.69257 -8.91544 26 ft 8 kts 239°
2026-05-05 20:43 52.69274 -8.91621 27 ft 9 kts 311°
2026-05-05 20:43 52.69322 -8.91710 27 ft 10 kts 317°
2026-05-05 20:44 52.69385 -8.91755 25 ft 7 kts 342°
2026-05-05 20:44 52.69404 -8.91789 26 ft 3 kts 278°
2026-05-05 20:44 52.69396 -8.91821 27 ft 4 kts 234°
2026-05-05 20:44 52.69375 -8.91856 25 ft 3 kts 224°
2026-05-05 20:45 52.69365 -8.91872 25 ft 0 kts 224°